UAL771 KDEN-CYYZ

Flight info

Callsign UAL771
Flight time 2h 30m
Altitude 37000
Route EEONS8 WYNDM DCT HCT DCT LNK DCT DSM DCT OBK DCT PMM DCT QWERI NUBER6
Aircraft A320/M-SDE3FGHIRWY/LB1

Departure

Time 2026-05-07 20:44
Airport Denver International Airport (KDEN)

Arrival

Time 2026-05-07 23:15
Airport Toronto Pearson International Airport (CYYZ)
Time Latitude Longitude Altitude Speed Heading
2026-05-07 20:15 39.85450 -104.67556 5366 ft 0 kts 183°
2026-05-07 20:20 39.85451 -104.67556 5366 ft 0 kts 183°
2026-05-07 20:32 39.85452 -104.67556 5366 ft 0 kts 183°
2026-05-07 20:36 39.85462 -104.67556 5362 ft 4 kts 187°
2026-05-07 20:37 39.85488 -104.67548 5363 ft 4 kts 204°
2026-05-07 20:37 39.85510 -104.67529 5365 ft 4 kts 232°
2026-05-07 20:37 39.85521 -104.67499 5362 ft 3 kts 268°
2026-05-07 20:37 39.85521 -104.67494 5363 ft 3 kts 270°
2026-05-07 20:39 39.85521 -104.67498 5362 ft 3 kts 270°
2026-05-07 20:39 39.85537 -104.67564 5362 ft 12 kts 301°
2026-05-07 20:40 39.85589 -104.67683 5366 ft 16 kts 278°
2026-05-07 20:40 39.85595 -104.67832 5366 ft 17 kts 271°
2026-05-07 20:40 39.85595 -104.67991 5366 ft 18 kts 270°
2026-05-07 20:40 39.85597 -104.68152 5366 ft 18 kts 270°
2026-05-07 20:41 39.85599 -104.68313 5364 ft 18 kts 271°
2026-05-07 20:41 39.85613 -104.68470 5365 ft 17 kts 301°
2026-05-07 20:41 39.85723 -104.68511 5366 ft 18 kts 360°
2026-05-07 20:41 39.85852 -104.68511 5364 ft 20 kts 359°
2026-05-07 20:42 39.85997 -104.68509 5364 ft 21 kts
2026-05-07 20:42 39.86149 -104.68507 5364 ft 22 kts
2026-05-07 20:42 39.86307 -104.68506 5365 ft 22 kts
2026-05-07 20:42 39.86424 -104.68570 5365 ft 19 kts 290°
2026-05-07 20:43 39.86463 -104.68704 5368 ft 14 kts 328°
2026-05-07 20:43 39.86511 -104.68715 5367 ft 0 kts 359°
2026-05-07 20:43 39.86565 -104.68716 5366 ft 36 kts
2026-05-07 20:43 39.87106 -104.68716 5364 ft 116 kts
2026-05-07 20:44 39.88129 -104.68707 5367 ft 176 kts 359°
2026-05-07 20:44 39.89475 -104.68670 5721 ft 198 kts 354°
2026-05-07 20:44 39.90854 -104.68619 6670 ft 201 kts
2026-05-07 20:44 39.92205 -104.68057 7443 ft 212 kts 25°
2026-05-07 20:45 39.93376 -104.66663 7806 ft 247 kts 51°
2026-05-07 20:45 39.94262 -104.64580 8224 ft 278 kts 63°
2026-05-07 20:45 39.94991 -104.62125 8809 ft 301 kts 72°
2026-05-07 20:45 39.95147 -104.59366 9599 ft 312 kts 94°
2026-05-07 20:46 39.94995 -104.56506 9977 ft 324 kts 91°
2026-05-07 20:46 39.94983 -104.53445 10152 ft 348 kts 87°
2026-05-07 20:46 39.95067 -104.50256 10701 ft 356 kts 86°
2026-05-07 20:46 39.95192 -104.47010 11383 ft 361 kts 85°
2026-05-07 20:47 39.95325 -104.43727 12086 ft 364 kts 85°
2026-05-07 20:47 39.95453 -104.40417 12781 ft 368 kts 85°
2026-05-07 20:47 39.95622 -104.37091 13476 ft 370 kts 83°
2026-05-07 20:47 39.95850 -104.33768 14093 ft 374 kts 82°
2026-05-07 20:48 39.96113 -104.30380 14663 ft 378 kts 82°
2026-05-07 20:48 39.96383 -104.26978 15241 ft 382 kts 82°
2026-05-07 20:48 39.96541 -104.24943 15589 ft 384 kts 82°
2026-05-07 20:49 39.96805 -104.21453 16157 ft 388 kts 83°
2026-05-07 20:49 39.97058 -104.17934 16743 ft 392 kts 83°
2026-05-07 20:49 39.97311 -104.14381 17306 ft 396 kts 82°
2026-05-07 20:49 39.97629 -104.10848 17862 ft 400 kts 81°
2026-05-07 20:50 39.98023 -104.07196 18427 ft 404 kts 79°
2026-05-07 20:50 39.98447 -104.03562 18950 ft 408 kts 79°
2026-05-07 20:50 39.98874 -103.99943 19474 ft 411 kts 79°
2026-05-07 20:50 39.99305 -103.96239 20003 ft 415 kts 79°
2026-05-07 20:51 39.99734 -103.92447 20544 ft 419 kts 79°
2026-05-07 20:51 40.00208 -103.88738 21052 ft 422 kts 77°
2026-05-07 20:51 40.00781 -103.84921 21574 ft 425 kts 75°
2026-05-07 20:51 40.01393 -103.81189 22070 ft 428 kts 75°
2026-05-07 20:52 40.02038 -103.77384 22582 ft 432 kts 74°
2026-05-07 20:52 40.02691 -103.73548 23080 ft 435 kts 74°
2026-05-07 20:52 40.03350 -103.69681 23567 ft 438 kts 74°
2026-05-07 20:52 40.04007 -103.65784 23974 ft 441 kts 74°
2026-05-07 20:53 40.04663 -103.61855 24389 ft 444 kts 74°
2026-05-07 20:53 40.05314 -103.57902 24806 ft 447 kts 74°
2026-05-07 20:53 40.05963 -103.53922 25212 ft 450 kts 74°
2026-05-07 20:53 40.06613 -103.49915 25617 ft 453 kts 74°
2026-05-07 20:54 40.07263 -103.45882 26016 ft 455 kts 74°
2026-05-07 20:54 40.07916 -103.41818 26408 ft 458 kts 73°
2026-05-07 20:54 40.08570 -103.37737 26792 ft 461 kts 73°
2026-05-07 20:54 40.09228 -103.33633 27160 ft 463 kts 73°
2026-05-07 20:55 40.09892 -103.29510 27529 ft 466 kts 73°
2026-05-07 20:55 40.10562 -103.25359 27891 ft 468 kts 73°
2026-05-07 20:55 40.11232 -103.21181 28262 ft 471 kts 73°
2026-05-07 20:55 40.11904 -103.16981 28608 ft 474 kts 73°
2026-05-07 20:56 40.12578 -103.12751 28963 ft 476 kts 73°
2026-05-07 20:56 40.13252 -103.08500 29311 ft 479 kts 73°
2026-05-07 20:56 40.13926 -103.04225 29643 ft 482 kts 73°
2026-05-07 20:56 40.14601 -102.99926 29995 ft 484 kts 73°
2026-05-07 20:57 40.15280 -102.95605 30284 ft 487 kts 73°
2026-05-07 20:57 40.15964 -102.91264 30562 ft 489 kts 73°
2026-05-07 20:57 40.16650 -102.86905 30861 ft 490 kts 73°
2026-05-07 20:57 40.17332 -102.82540 31279 ft 489 kts 73°
2026-05-07 20:58 40.18012 -102.78195 31687 ft 487 kts 73°
2026-05-07 20:58 40.18690 -102.73857 32095 ft 486 kts 73°
2026-05-07 20:58 40.19364 -102.69527 32507 ft 486 kts 73°
2026-05-07 20:58 40.20026 -102.65260 32926 ft 485 kts 73°
2026-05-07 20:59 40.20693 -102.60940 33343 ft 484 kts 73°
2026-05-07 20:59 40.21366 -102.56565 33756 ft 484 kts 73°
2026-05-07 20:59 40.22030 -102.52245 34133 ft 483 kts 73°
2026-05-07 20:59 40.22692 -102.47933 34454 ft 483 kts 73°
2026-05-07 21:00 40.23351 -102.43619 34754 ft 484 kts 73°
2026-05-07 21:00 40.24007 -102.39297 35039 ft 484 kts 74°
2026-05-07 21:00 40.24663 -102.34973 35321 ft 484 kts 74°
2026-05-07 21:00 40.25319 -102.30648 35585 ft 485 kts 74°
2026-05-07 21:01 40.25976 -102.26316 35846 ft 485 kts 75°
2026-05-07 21:01 40.26632 -102.21981 36105 ft 486 kts 75°
2026-05-07 21:01 40.27285 -102.17637 36364 ft 486 kts 75°
2026-05-07 21:01 40.27937 -102.13290 36618 ft 487 kts 75°
2026-05-07 21:02 40.28588 -102.08937 36849 ft 488 kts 75°
2026-05-07 21:02 40.29885 -102.00243 36934 ft 491 kts 76°
2026-05-07 21:03 40.31189 -101.91453 36935 ft 492 kts 76°
2026-05-07 21:03 40.32488 -101.82647 36935 ft 493 kts 76°
2026-05-07 21:04 40.33780 -101.73827 36940 ft 493 kts 76°
2026-05-07 21:04 40.35070 -101.64987 36943 ft 494 kts 76°
2026-05-07 21:05 40.36350 -101.56132 36952 ft 495 kts 76°
2026-05-07 21:05 40.37624 -101.47260 36952 ft 495 kts 76°
2026-05-07 21:06 40.38890 -101.38438 36948 ft 496 kts 76°
2026-05-07 21:06 40.40165 -101.29547 36941 ft 496 kts 76°
2026-05-07 21:07 40.41437 -101.20644 36935 ft 497 kts 77°
2026-05-07 21:07 40.42695 -101.11725 36931 ft 497 kts 77°
2026-05-07 21:08 40.43954 -101.02795 36929 ft 498 kts 77°
2026-05-07 21:08 40.45210 -100.93860 36927 ft 498 kts 77°
2026-05-07 21:09 40.46421 -100.84897 36929 ft 499 kts 78°
2026-05-07 21:09 40.47569 -100.75912 36930 ft 499 kts 78°
2026-05-07 21:10 40.48715 -100.66917 36928 ft 500 kts 78°
2026-05-07 21:10 40.49872 -100.57925 36927 ft 500 kts 78°
2026-05-07 21:11 40.51024 -100.48970 36922 ft 500 kts 78°
2026-05-07 21:11 40.52745 -100.35440 36920 ft 501 kts 78°
2026-05-07 21:12 40.53873 -100.26406 36920 ft 501 kts 78°
2026-05-07 21:12 40.54995 -100.17365 36923 ft 501 kts 78°
2026-05-07 21:13 40.56121 -100.08321 36925 ft 501 kts 78°
2026-05-07 21:13 40.57243 -99.99261 36926 ft 502 kts 78°
2026-05-07 21:14 40.58350 -99.90199 36930 ft 502 kts 78°
2026-05-07 21:14 40.59446 -99.81129 36932 ft 502 kts 78°
2026-05-07 21:15 40.60538 -99.72060 36936 ft 502 kts 79°
2026-05-07 21:15 40.61629 -99.62980 36935 ft 502 kts 79°
2026-05-07 21:16 40.62713 -99.53895 36925 ft 502 kts 79°
2026-05-07 21:16 40.63791 -99.44806 36926 ft 503 kts 79°
2026-05-07 21:17 40.64859 -99.35723 36925 ft 503 kts 79°
2026-05-07 21:17 40.65926 -99.26619 36930 ft 503 kts 79°
2026-05-07 21:18 40.66985 -99.17519 36934 ft 503 kts 79°
2026-05-07 21:18 40.68025 -99.08413 36940 ft 503 kts 79°
2026-05-07 21:19 40.69052 -98.99305 36942 ft 503 kts 79°
2026-05-07 21:19 40.70086 -98.90199 36940 ft 502 kts 79°
2026-05-07 21:20 40.71109 -98.81154 36936 ft 502 kts 79°
2026-05-07 21:20 40.72128 -98.72038 36933 ft 502 kts 79°
2026-05-07 21:21 40.73129 -98.62924 36930 ft 502 kts 79°
2026-05-07 21:21 40.74133 -98.53806 36928 ft 502 kts 79°
2026-05-07 21:22 40.75138 -98.44694 36925 ft 502 kts 79°
2026-05-07 21:22 40.76129 -98.35581 36924 ft 502 kts 79°
2026-05-07 21:23 40.77111 -98.26470 36931 ft 502 kts 80°
2026-05-07 21:23 40.78078 -98.17359 36930 ft 502 kts 80°
2026-05-07 21:24 40.78883 -98.09719 36934 ft 502 kts 80°
2026-05-07 21:24 40.79840 -98.00597 36934 ft 502 kts 80°
2026-05-07 21:25 40.80800 -97.91471 36934 ft 502 kts 80°
2026-05-07 21:25 40.81739 -97.82346 36930 ft 502 kts 80°
2026-05-07 21:26 40.82677 -97.73277 36923 ft 502 kts 80°
2026-05-07 21:26 40.83617 -97.64082 36916 ft 502 kts 81°
2026-05-07 21:27 40.84534 -97.54997 36915 ft 502 kts 81°
2026-05-07 21:27 40.85454 -97.45847 36918 ft 503 kts 81°
2026-05-07 21:28 40.86363 -97.36692 36917 ft 503 kts 81°
2026-05-07 21:28 40.87262 -97.27535 36914 ft 503 kts 81°
2026-05-07 21:29 40.88155 -97.18375 36909 ft 503 kts 81°
2026-05-07 21:29 40.89042 -97.09213 36914 ft 503 kts 81°
2026-05-07 21:30 40.89925 -97.00038 36912 ft 503 kts 81°
2026-05-07 21:30 40.90805 -96.90853 36918 ft 503 kts 81°
2026-05-07 21:31 40.91677 -96.81675 36917 ft 503 kts 81°
2026-05-07 21:31 40.92672 -96.72520 36915 ft 502 kts 74°
2026-05-07 21:32 40.94304 -96.63558 36911 ft 502 kts 74°
2026-05-07 21:32 40.95921 -96.54580 36912 ft 502 kts 74°
2026-05-07 21:33 40.97509 -96.45659 36908 ft 502 kts 74°
2026-05-07 21:33 40.99103 -96.36670 36904 ft 501 kts 74°
2026-05-07 21:34 41.00695 -96.27690 36902 ft 501 kts 74°
2026-05-07 21:34 41.02276 -96.18711 36901 ft 501 kts 74°
2026-05-07 21:35 41.03847 -96.09734 36901 ft 500 kts 74°
2026-05-07 21:35 41.05415 -96.00760 36893 ft 500 kts 74°
2026-05-07 21:36 41.06972 -95.91782 36892 ft 500 kts 74°
2026-05-07 21:36 41.08520 -95.82805 36890 ft 500 kts 75°
2026-05-07 21:37 41.10061 -95.73819 36892 ft 500 kts 75°
2026-05-07 21:37 41.11594 -95.64828 36888 ft 500 kts 75°
2026-05-07 21:38 41.13121 -95.55828 36892 ft 500 kts 75°
2026-05-07 21:38 41.14642 -95.46829 36887 ft 500 kts 75°
2026-05-07 21:39 41.16162 -95.37823 36882 ft 500 kts 75°
2026-05-07 21:39 41.17665 -95.28812 36881 ft 500 kts 75°
2026-05-07 21:40 41.19165 -95.19798 36882 ft 500 kts 75°
2026-05-07 21:40 41.20658 -95.10783 36884 ft 500 kts 75°
2026-05-07 21:41 41.22144 -95.01759 36880 ft 500 kts 75°
2026-05-07 21:41 41.23632 -94.92730 36879 ft 500 kts 75°
2026-05-07 21:42 41.25109 -94.83700 36880 ft 500 kts 75°
2026-05-07 21:42 41.26580 -94.74656 36879 ft 501 kts 75°
2026-05-07 21:43 41.28029 -94.65665 36885 ft 501 kts 75°
2026-05-07 21:43 41.29475 -94.56603 36891 ft 501 kts 75°
2026-05-07 21:44 41.30921 -94.47525 36898 ft 502 kts 75°
2026-05-07 21:44 41.32367 -94.38438 36893 ft 502 kts 75°
2026-05-07 21:45 41.33804 -94.29330 36894 ft 503 kts 75°
2026-05-07 21:45 41.35243 -94.20218 36897 ft 503 kts 75°
2026-05-07 21:46 41.36671 -94.11095 36901 ft 504 kts 75°
2026-05-07 21:46 41.38087 -94.01952 36908 ft 505 kts 75°
2026-05-07 21:47 41.39499 -93.92794 36907 ft 505 kts 75°
2026-05-07 21:47 41.40905 -93.83634 36913 ft 505 kts 75°
2026-05-07 21:48 41.42309 -93.74462 36910 ft 506 kts 75°
2026-05-07 21:48 41.43709 -93.65276 36914 ft 506 kts 75°
2026-05-07 21:49 41.45158 -93.56095 36914 ft 506 kts 74°
2026-05-07 21:49 41.46676 -93.46934 36915 ft 507 kts 74°
2026-05-07 21:50 41.48183 -93.37813 36925 ft 507 kts 74°
2026-05-07 21:50 41.49668 -93.28615 36930 ft 508 kts 75°
2026-05-07 21:51 41.51138 -93.19403 36929 ft 508 kts 75°
2026-05-07 21:51 41.52606 -93.10178 36928 ft 508 kts 75°
2026-05-07 21:52 41.54068 -93.00947 36930 ft 509 kts 75°
2026-05-07 21:52 41.55532 -92.91700 36932 ft 509 kts 75°
2026-05-07 21:53 41.56989 -92.82444 36942 ft 510 kts 75°
2026-05-07 21:53 41.58434 -92.73171 36948 ft 510 kts 75°
2026-05-07 21:54 41.59866 -92.63895 36941 ft 510 kts 75°
2026-05-07 21:54 41.61301 -92.54612 36943 ft 511 kts 75°
2026-05-07 21:55 41.62714 -92.45368 36943 ft 511 kts 75°
2026-05-07 21:55 41.64130 -92.36047 36942 ft 512 kts 75°
2026-05-07 21:56 41.65549 -92.26712 36947 ft 513 kts 75°
2026-05-07 21:56 41.66956 -92.17362 36944 ft 513 kts 75°
2026-05-07 21:57 41.68355 -92.08003 36947 ft 513 kts 75°
2026-05-07 21:57 41.69755 -91.98633 36947 ft 514 kts 75°
2026-05-07 21:58 41.71135 -91.89310 36942 ft 514 kts 75°
2026-05-07 21:58 41.72522 -91.79915 36940 ft 515 kts 75°
2026-05-07 21:59 41.73900 -91.70512 36941 ft 515 kts 75°
2026-05-07 21:59 41.75275 -91.61098 36962 ft 515 kts 75°
2026-05-07 22:00 41.76638 -91.51670 36962 ft 516 kts 75°
2026-05-07 22:00 41.77986 -91.42227 36958 ft 516 kts 75°
2026-05-07 22:01 41.79332 -91.32772 36946 ft 516 kts 75°
2026-05-07 22:01 41.80678 -91.23314 36942 ft 517 kts 75°
2026-05-07 22:02 41.82016 -91.13853 36931 ft 517 kts 75°
2026-05-07 22:02 41.83352 -91.04371 36934 ft 518 kts 75°
2026-05-07 22:03 41.84671 -90.94883 36934 ft 518 kts 76°
2026-05-07 22:03 41.85985 -90.85369 36934 ft 519 kts 76°
2026-05-07 22:04 41.87280 -90.75897 36938 ft 520 kts 76°
2026-05-07 22:04 41.88584 -90.66350 36941 ft 520 kts 76°
2026-05-07 22:05 41.89876 -90.56789 36943 ft 521 kts 76°
2026-05-07 22:05 41.91162 -90.47220 36942 ft 521 kts 76°
2026-05-07 22:06 41.92451 -90.37640 36929 ft 521 kts 76°
2026-05-07 22:06 41.93738 -90.28055 36936 ft 522 kts 76°
2026-05-07 22:07 41.95009 -90.18457 36929 ft 522 kts 76°
2026-05-07 22:07 41.96266 -90.08843 36923 ft 522 kts 76°
2026-05-07 22:08 41.97522 -89.99222 36924 ft 523 kts 77°
2026-05-07 22:08 41.98766 -89.89591 36929 ft 523 kts 77°
2026-05-07 22:09 42.00009 -89.79950 36929 ft 524 kts 77°
2026-05-07 22:09 42.01238 -89.70353 36927 ft 525 kts 77°
2026-05-07 22:10 42.02464 -89.60609 36933 ft 525 kts 77°
2026-05-07 22:10 42.03675 -89.50991 36930 ft 526 kts 77°
2026-05-07 22:11 42.04891 -89.41282 36936 ft 526 kts 77°
2026-05-07 22:11 42.06095 -89.31578 36935 ft 526 kts 77°
2026-05-07 22:12 42.07292 -89.21860 36933 ft 527 kts 78°
2026-05-07 22:12 42.08487 -89.12131 36929 ft 527 kts 78°
2026-05-07 22:13 42.09677 -89.02391 36929 ft 527 kts 78°
2026-05-07 22:13 42.10850 -88.92645 36930 ft 528 kts 78°
2026-05-07 22:14 42.12017 -88.82882 36943 ft 528 kts 78°
2026-05-07 22:14 42.13180 -88.73118 36942 ft 528 kts 78°
2026-05-07 22:15 42.14337 -88.63341 36944 ft 529 kts 78°
2026-05-07 22:15 42.15490 -88.53555 36949 ft 529 kts 78°
2026-05-07 22:16 42.16441 -88.45407 36951 ft 529 kts 78°
2026-05-07 22:16 42.17576 -88.35607 36953 ft 529 kts 79°
2026-05-07 22:17 42.18878 -88.24200 36955 ft 530 kts 79°
2026-05-07 22:17 42.19810 -88.15970 36953 ft 530 kts 79°
2026-05-07 22:18 42.21464 -88.01238 36951 ft 530 kts 79°
2026-05-07 22:19 42.22581 -87.91417 36952 ft 530 kts 78°
2026-05-07 22:19 42.23920 -87.81720 36958 ft 529 kts 76°
2026-05-07 22:20 42.25384 -87.71995 36960 ft 529 kts 76°
2026-05-07 22:20 42.26784 -87.62242 36957 ft 529 kts 77°
2026-05-07 22:21 42.28103 -87.52467 36963 ft 529 kts 78°
2026-05-07 22:21 42.29410 -87.42692 36974 ft 529 kts 78°
2026-05-07 22:22 42.30732 -87.32912 36964 ft 529 kts 77°
2026-05-07 22:22 42.32062 -87.23127 36963 ft 530 kts 77°
2026-05-07 22:23 42.33384 -87.13331 36959 ft 530 kts 78°
2026-05-07 22:23 42.34688 -87.03523 36956 ft 530 kts 78°
2026-05-07 22:24 42.35981 -86.93697 36958 ft 531 kts 78°
2026-05-07 22:24 42.37271 -86.83866 36960 ft 531 kts 78°
2026-05-07 22:25 42.38554 -86.74016 36971 ft 532 kts 78°
2026-05-07 22:25 42.39827 -86.64160 36970 ft 532 kts 78°
2026-05-07 22:26 42.41095 -86.54294 36967 ft 532 kts 78°
2026-05-07 22:26 42.42355 -86.44417 36971 ft 533 kts 79°
2026-05-07 22:27 42.43609 -86.34533 36964 ft 533 kts 79°
2026-05-07 22:27 42.44852 -86.24638 36960 ft 533 kts 79°
2026-05-07 22:28 42.46084 -86.14736 36963 ft 534 kts 79°
2026-05-07 22:28 42.47183 -86.04792 36967 ft 534 kts 82°
2026-05-07 22:29 42.47892 -85.94773 36969 ft 534 kts 85°
2026-05-07 22:29 42.48472 -85.84741 36977 ft 535 kts 85°
2026-05-07 22:30 42.49122 -85.74764 36977 ft 535 kts 84°
2026-05-07 22:30 42.49847 -85.64722 36979 ft 536 kts 84°
2026-05-07 22:31 42.50562 -85.54674 36977 ft 536 kts 84°
2026-05-07 22:31 42.51245 -85.44616 36979 ft 536 kts 85°
2026-05-07 22:32 42.51908 -85.34555 36972 ft 536 kts 85°
2026-05-07 22:32 42.52568 -85.24492 36974 ft 536 kts 85°
2026-05-07 22:33 42.53230 -85.14418 36969 ft 537 kts 85°
2026-05-07 22:33 42.53882 -85.04338 36962 ft 537 kts 85°
2026-05-07 22:34 42.54518 -84.94254 36950 ft 537 kts 85°
2026-05-07 22:34 42.55143 -84.84158 36951 ft 537 kts 85°
2026-05-07 22:35 42.55754 -84.74058 36947 ft 537 kts 86°
2026-05-07 22:35 42.56368 -84.63952 36957 ft 538 kts 86°
2026-05-07 22:36 42.56977 -84.53826 36947 ft 538 kts 86°
2026-05-07 22:36 42.57571 -84.43703 36957 ft 539 kts 86°
2026-05-07 22:37 42.58161 -84.33560 36949 ft 539 kts 86°
2026-05-07 22:37 42.58741 -84.23414 36964 ft 539 kts 86°
2026-05-07 22:38 42.59306 -84.13338 36959 ft 539 kts 86°
2026-05-07 22:38 42.59874 -84.03128 36954 ft 539 kts 86°
2026-05-07 22:39 42.60432 -83.92975 36950 ft 539 kts 87°
2026-05-07 22:39 42.60968 -83.82888 36954 ft 539 kts 87°
2026-05-07 22:40 42.61497 -83.72736 36953 ft 539 kts 87°
2026-05-07 22:40 42.62018 -83.62572 36956 ft 540 kts 87°
2026-05-07 22:41 42.62530 -83.52407 36945 ft 540 kts 87°
2026-05-07 22:41 42.63038 -83.42231 36943 ft 540 kts 87°
2026-05-07 22:42 42.63541 -83.32049 36934 ft 541 kts 87°
2026-05-07 22:42 42.64032 -83.21841 36936 ft 542 kts 88°
2026-05-07 22:43 42.64512 -83.11622 36934 ft 543 kts 88°
2026-05-07 22:43 42.64992 -83.01387 36899 ft 544 kts 88°
2026-05-07 22:44 42.65453 -82.91128 36897 ft 544 kts 88°
2026-05-07 22:44 42.65915 -82.80853 36904 ft 545 kts 88°
2026-05-07 22:45 42.66360 -82.70576 36903 ft 545 kts 88°
2026-05-07 22:45 42.66785 -82.60303 36916 ft 545 kts 88°
2026-05-07 22:46 42.67216 -82.50014 36951 ft 546 kts 88°
2026-05-07 22:46 42.67645 -82.39704 36954 ft 546 kts 88°
2026-05-07 22:47 42.68621 -82.29492 36949 ft 546 kts 73°
2026-05-07 22:47 42.71523 -82.20046 36956 ft 539 kts 54°
2026-05-07 22:48 42.75816 -82.11785 36871 ft 535 kts 48°
2026-05-07 22:48 42.78026 -82.07702 36616 ft 535 kts 48°
2026-05-07 22:48 42.80168 -82.03637 36370 ft 539 kts 53°
2026-05-07 22:48 42.82050 -81.99209 36120 ft 542 kts 56°
2026-05-07 22:49 42.83903 -81.94726 35877 ft 543 kts 56°
2026-05-07 22:49 42.85749 -81.90235 35639 ft 544 kts 57°
2026-05-07 22:49 42.87596 -81.85730 35412 ft 544 kts 57°
2026-05-07 22:49 42.89439 -81.81241 35114 ft 540 kts 56°
2026-05-07 22:50 42.91275 -81.76773 34584 ft 540 kts 56°
2026-05-07 22:50 42.93112 -81.72311 34075 ft 539 kts 56°
2026-05-07 22:50 42.94947 -81.67854 33496 ft 539 kts 56°
2026-05-07 22:50 42.96774 -81.63408 32983 ft 535 kts 57°
2026-05-07 22:51 42.98583 -81.58984 32455 ft 533 kts 57°
2026-05-07 22:51 43.00377 -81.54573 31922 ft 530 kts 57°
2026-05-07 22:51 43.02153 -81.50189 31381 ft 522 kts 57°
2026-05-07 22:51 43.03883 -81.45911 30876 ft 507 kts 57°
2026-05-07 22:52 43.05563 -81.41752 30397 ft 493 kts 57°
2026-05-07 22:52 43.07205 -81.37694 29905 ft 482 kts 57°
2026-05-07 22:52 43.08802 -81.33716 29419 ft 472 kts 58°
2026-05-07 22:52 43.10355 -81.29783 28970 ft 468 kts 58°
2026-05-07 22:53 43.11883 -81.25876 28541 ft 466 kts 58°
2026-05-07 22:53 43.13400 -81.21967 28109 ft 464 kts 59°
2026-05-07 22:53 43.14910 -81.18068 27684 ft 463 kts 59°
2026-05-07 22:53 43.16416 -81.14179 27252 ft 462 kts 59°
2026-05-07 22:54 43.17919 -81.10295 26838 ft 460 kts 59°
2026-05-07 22:54 43.19419 -81.06430 26402 ft 459 kts 59°
2026-05-07 22:54 43.20920 -81.02578 25970 ft 458 kts 59°
2026-05-07 22:54 43.22416 -80.98737 25503 ft 452 kts 60°
2026-05-07 22:55 43.23873 -80.94986 25080 ft 440 kts 60°
2026-05-07 22:55 43.25291 -80.91324 24643 ft 430 kts 60°
2026-05-07 22:55 43.26676 -80.87737 24200 ft 423 kts 61°
2026-05-07 22:55 43.28051 -80.84171 23745 ft 423 kts 61°
2026-05-07 22:56 43.29429 -80.80599 23252 ft 423 kts 61°
2026-05-07 22:56 43.30799 -80.77034 22786 ft 421 kts 61°
2026-05-07 22:56 43.32160 -80.73481 22308 ft 419 kts 61°
2026-05-07 22:56 43.33512 -80.69944 21837 ft 418 kts 61°
2026-05-07 22:57 43.34859 -80.66414 21369 ft 417 kts 61°
2026-05-07 22:57 43.36203 -80.62894 20885 ft 416 kts 61°
2026-05-07 22:57 43.37543 -80.59388 20409 ft 411 kts 61°
2026-05-07 22:57 43.38855 -80.55951 19941 ft 401 kts 61°
2026-05-07 22:58 43.40133 -80.52602 19490 ft 391 kts 60°
2026-05-07 22:58 43.41389 -80.49309 19041 ft 388 kts 60°
2026-05-07 22:58 43.42638 -80.46027 18589 ft 389 kts 60°
2026-05-07 22:58 43.43878 -80.42764 18124 ft 390 kts 60°
2026-05-07 22:59 43.45147 -80.39423 17708 ft 387 kts 60°
2026-05-07 22:59 43.46262 -80.36067 17270 ft 386 kts 68°
2026-05-07 22:59 43.47212 -80.32672 16830 ft 385 kts 68°
2026-05-07 22:59 43.48171 -80.29237 16359 ft 384 kts 68°
2026-05-07 23:00 43.49125 -80.25811 15906 ft 383 kts 68°
2026-05-07 23:00 43.50086 -80.22355 15610 ft 377 kts 68°
2026-05-07 23:00 43.50993 -80.19086 15296 ft 366 kts 68°
2026-05-07 23:00 43.51900 -80.15770 14646 ft 363 kts 69°
2026-05-07 23:01 43.52756 -80.12575 14054 ft 358 kts 69°
2026-05-07 23:01 43.53603 -80.09385 13524 ft 352 kts 69°
2026-05-07 23:01 43.54439 -80.06228 13037 ft 348 kts 69°
2026-05-07 23:01 43.55262 -80.03120 12585 ft 344 kts 69°
2026-05-07 23:02 43.56076 -80.00045 12099 ft 339 kts 69°
2026-05-07 23:02 43.56878 -79.97009 11647 ft 335 kts 68°
2026-05-07 23:02 43.57672 -79.94008 11192 ft 331 kts 68°
2026-05-07 23:02 43.58458 -79.91036 10748 ft 327 kts 68°
2026-05-07 23:03 43.59187 -79.88085 10308 ft 324 kts 75°
2026-05-07 23:03 43.59492 -79.85034 9871 ft 320 kts 89°
2026-05-07 23:03 43.59509 -79.81984 9411 ft 317 kts 90°
2026-05-07 23:03 43.59529 -79.78959 8977 ft 313 kts 90°
2026-05-07 23:04 43.59553 -79.75976 8551 ft 309 kts 89°
2026-05-07 23:04 43.59576 -79.73057 8244 ft 296 kts 90°
2026-05-07 23:04 43.59595 -79.70312 8107 ft 277 kts 90°
2026-05-07 23:04 43.59614 -79.67738 7976 ft 259 kts 89°
2026-05-07 23:05 43.59632 -79.65287 7996 ft 258 kts 90°
2026-05-07 23:05 43.59643 -79.63640 8004 ft 260 kts 90°
2026-05-07 23:05 43.59655 -79.61138 7856 ft 260 kts 90°
2026-05-07 23:05 43.59661 -79.58658 7696 ft 258 kts 90°
2026-05-07 23:06 43.59752 -79.56202 7553 ft 256 kts 78°
2026-05-07 23:06 43.60310 -79.53897 7396 ft 253 kts 59°
2026-05-07 23:06 43.61319 -79.51951 7275 ft 248 kts 43°
2026-05-07 23:06 43.62510 -79.50241 7131 ft 247 kts 43°
2026-05-07 23:07 43.63689 -79.48529 6984 ft 245 kts 43°
2026-05-07 23:07 43.64861 -79.46822 6845 ft 245 kts 43°
2026-05-07 23:07 43.66028 -79.45120 6701 ft 243 kts 43°
2026-05-07 23:07 43.67188 -79.43427 6564 ft 242 kts 43°
2026-05-07 23:08 43.68341 -79.41742 6427 ft 241 kts 44°
2026-05-07 23:08 43.69485 -79.40066 6279 ft 239 kts 44°
2026-05-07 23:08 43.70623 -79.38397 6141 ft 238 kts 44°
2026-05-07 23:08 43.71758 -79.36736 5996 ft 238 kts 44°
2026-05-07 23:09 43.72899 -79.35092 5858 ft 236 kts 39°
2026-05-07 23:09 43.74294 -79.34049 5724 ft 226 kts
2026-05-07 23:09 43.75802 -79.34228 5555 ft 217 kts 333°
2026-05-07 23:09 43.77075 -79.35283 5291 ft 212 kts 321°
2026-05-07 23:10 43.78251 -79.36509 5030 ft 211 kts 316°
2026-05-07 23:10 43.79021 -79.38165 4756 ft 206 kts 286°
2026-05-07 23:10 43.79227 -79.40165 4279 ft 214 kts 269°
2026-05-07 23:10 43.78967 -79.42192 3978 ft 214 kts 252°
2026-05-07 23:11 43.78267 -79.44002 3713 ft 215 kts 235°
2026-05-07 23:11 43.77269 -79.45511 3427 ft 208 kts 229°
2026-05-07 23:11 43.76303 -79.46921 3151 ft 196 kts 230°
2026-05-07 23:11 43.75393 -79.48251 2898 ft 187 kts 230°
2026-05-07 23:12 43.74504 -79.49552 2622 ft 185 kts 231°
2026-05-07 23:12 43.73623 -79.50838 2367 ft 184 kts 231°
2026-05-07 23:12 43.72764 -79.52091 2114 ft 175 kts 231°
2026-05-07 23:12 43.71954 -79.53270 1871 ft 163 kts 230°
2026-05-07 23:13 43.71205 -79.54361 1655 ft 150 kts 230°
2026-05-07 23:13 43.70503 -79.55385 1451 ft 145 kts 230°
2026-05-07 23:13 43.69819 -79.56383 1284 ft 140 kts 230°
2026-05-07 23:13 43.69154 -79.57352 1071 ft 138 kts 229°
2026-05-07 23:14 43.68499 -79.58307 882 ft 139 kts 228°
2026-05-07 23:14 43.67838 -79.59289 705 ft 140 kts 228°
2026-05-07 23:14 43.67165 -79.60257 569 ft 138 kts 227°
2026-05-07 23:14 43.66585 -79.61096 567 ft 100 kts 227°
2026-05-07 23:15 43.66192 -79.61670 562 ft 55 kts 226°
2026-05-07 23:15 43.66034 -79.61916 564 ft 28 kts 236°
2026-05-07 23:15 43.65986 -79.62128 565 ft 20 kts 268°
2026-05-07 23:15 43.66066 -79.62292 562 ft 21 kts 317°
2026-05-07 23:16 43.66178 -79.62437 564 ft 22 kts 317°
2026-05-07 23:16 43.66317 -79.62450 563 ft 23 kts 38°
2026-05-07 23:16 43.66438 -79.62302 567 ft 24 kts 43°
2026-05-07 23:16 43.66555 -79.62153 565 ft 22 kts 42°
2026-05-07 23:17 43.66670 -79.62009 567 ft 23 kts 42°
2026-05-07 23:17 43.66782 -79.61867 570 ft 22 kts 43°
2026-05-07 23:17 43.66895 -79.61723 571 ft 17 kts 42°
2026-05-07 23:17 43.66985 -79.61610 568 ft 19 kts 42°
2026-05-07 23:18 43.67082 -79.61484 569 ft 20 kts 43°
2026-05-07 23:18 43.67187 -79.61342 568 ft 22 kts 47°
2026-05-07 23:18 43.67286 -79.61165 567 ft 24 kts 53°
2026-05-07 23:18 43.67380 -79.60996 563 ft 19 kts 52°
2026-05-07 23:19 43.67463 -79.60848 563 ft 20 kts 51°
2026-05-07 23:19 43.67558 -79.60703 561 ft 21 kts 47°
2026-05-07 23:19 43.67660 -79.60556 563 ft 22 kts 47°
2026-05-07 23:19 43.67758 -79.60413 561 ft 17 kts 44°
2026-05-07 23:20 43.67845 -79.60435 563 ft 16 kts 297°
2026-05-07 23:20 43.67912 -79.60559 563 ft 17 kts 315°
2026-05-07 23:20 43.67992 -79.60665 562 ft 12 kts 317°
2026-05-07 23:20 43.67993 -79.60755 563 ft 10 kts 231°
2026-05-07 23:21 43.67984 -79.60771 565 ft 0 kts 229°